Regional Weather Roundup
Issued by NWS Charleston, SC

Current Version | Previous Version | Graphics & Text | Print | Product List | Glossary On
Versions: 1 2 3 4 5 6 7 8 9 10 11 12 13 14 15 16 17 18 19 20 21 22 23 24 25 26 27 28 29 30 31 32 33 34 35 36 37 38 39 40 41 42 43 44 45 46 47 48 49 50
000 ASUS42 KCHS 280410 RWRCHS REGIONAL WEATHER ROUNDUP NATIONAL WEATHER SERVICE CHARLESTON SC 1200 AM EDT MON JUL 28 2014 NOTE: "FAIR" INDICATES FEW OR NO CLOUDS BELOW 12,000 FEET WITH NO SIGNIFICANT WEATHER AND/OR OBSTRUCTIONS TO VISIBILITY. NOT ALL STATIONS ARE QUALITY CONTROLLED BY THE NATIONAL WEATHER SERVICE. USE DATA WITH CAUTION...ESPECIALLY DEWPOINT OBSERVATIONS. SCZ027-030-031-034>040-042>050-280500- ...SOUTH CAROLINA... CITY SKY/WX TMP DP RH WIND PRES REMARKS N CHARLESTON MOCLDY 84 78 82 SW9 29.90F HX 95 WATERFRONT PRK N/A 84 N/A N/A SW9 N/A FORT JOHNSON NOT AVBL MOUNT PLEASANT FAIR 84 81 89 SW9 29.90S HAZE HX 98 JOHNS ISLAND CLEAR 86 79 79 SW8 29.91F HX 99 PINOPOLIS N/A 86 73 66 SW6 29.83S HX 93 MONCKS CORNER N/A 84 77 79 SW6 29.89F HX 94 SUMMERVILLE NOT AVBL BEAUFORT MCAS MOCLDY 84 74 71 W6 29.91F HX 91 BEAUFORT ARPT FAIR 86 75 70 SW6 29.91S HX 95 HILTON HEAD IS MOCLDY 84 79 84 S7 29.93F HX 96 GEORGETOWN NOT AVBL WALTERBORO MOCLDY 82 72 69 SW7 29.91F ORANGEBURG CLOUDY 81 72 74 SW6 29.90S BARNWELL FAIR 82 73 74 SW5 29.92R AIKEN FAIR 82 75 78 SW7 29.95S MANNING FAIR 86 73 66 SW6 29.89S HX 93 KINGSTREE NOT AVBL COLUMBIA CLOUDY 86 71 60 SW5 29.89S HX 91 SUMTER CLOUDY 83 74 73 SW8 29.88R HX 90 FLORENCE CLOUDY 85 73 67 SW9 29.87R HX 91 MYRTLE BEACH CLOUDY 84 75 74 SW10 29.87S HX 92 N MYRTLE BEACH CLOUDY 84 78 82 SW12 29.86F HX 95 $$ GAZ063-065-086>088-099>101-113>116-118-119-134-136>141-150-280500- ...GEORGIA... CITY SKY/WX TMP DP RH WIND PRES REMARKS SAVANNAH ARPT MOCLDY 85 72 65 SW9 29.93F HX 91 HUNTER AAF MOCLDY 85 76 74 S6 29.92F HX 93 FORT STEWART MOCLDY 85 72 63 SW9 29.93F HX 91 STATESBORO NOT AVBL SYLVANIA MOCLDY 82 76 81 SW3 29.93S HX 90 CLAXTON FAIR 81 79 94 CALM 29.94F THOMSON MOCLDY 84 78 81 SW5 29.96S HX 95 AUGUSTA-BUSH CLOUDY 82 73 74 W3 29.90S AUGUSTA-DANIEL CLOUDY 86 73 65 VRB5 29.92S HX 93 SWAINSBORO FAIR 86 77 74 W5 29.95S HX 97 VIDALIA N/A 82 73 74 SW6 29.96S ALMA PTCLDY 84 73 69 SW8 29.97F HX 90 WAYCROSS CLEAR 85 79 82 SW8 29.98F HX 97 JESUP NOT AVBL BRUNSWICK CLEAR 86 72 62 SW9 29.97F HX 92 SAINT SIMONS CLEAR 85 74 69 SW12 29.97F HX 92 $$ SCZ027-028-034-036>038-045-046-048>050-GAZ119-141-280500- ...LAKE AND SUPPLEMENTAL COASTAL OBSERVATIONS... STATION/POSITION TIME TEMP WIND PRES WAVE SWELL AIR SEA DIR/SP/G HT/PER HT/PER/DIR (UTC) (F) (DEG/KT/KT) (MB) (FT/S) (FT/S/D) UPR LAKE MARION NOT AVBL WINYAH BAY 0300 84 220/ 10 1012.0S LAKE MURRAY 0300 87 260/ 9/ 11 1011.9R ACE BASIN NERRS 0300 83 CALM 1014.0S FORT PULASKI 0400 85 210/ 7/ 12 1013.8F SAPELO ISLAND 0300 86 220/ 8 1016.0S $$ ANZ835-935-AMZ111-154-330-350-352-354-374-450-454-472-280500- ...C-MAN AND BUOY OBSERVATIONS... STATION/POSITION TIME TEMP WIND PRES WAVE SWELL AIR SEA DIR/SP/G HT/PER HT/PER/DIR (UTC) (F) (DEG/KT/KT) (MB) (FT/S) (FT/S/D) FOLLY BEACH CMAN 0300 85 220/ 16/ 19 1013.6F BUOY 41004 0400 85 84 220/ 19/ 23 1011.9F 4/ 5 2/10 BUOY 41008 0400 85 85 210/ 14/ 16 1014.2F 3/ 4 2/120/ 9 5E ST. MARYS GA 0300 85 N/A 2/11 FRYING PAN BUOY NOT AVBL BUOY 41025 0400 VRB 19/ 23 1009.7F 4/ 5 2/100/10 CAPE LOOKOUT NC 0300 82 220/ 11/ 19 1010.9F BUOY 41002 0251 81 81 240/ 17/ 21 1015.6F 5/ 6 2/130/ 9 BUOY 41010 0400 84 84 210/ 14/ 16 1017.6R 3/10 2/130/10 BUOY 41012 NOT AVBL ST AUGUSTINE FL 0400 82 260/ 8/ 12 1017.5F CAPERS NEARSHORE 0300 85 230/ 19/ 21 N/A FRIPP NEARSHORE NOT AVBL $$

USA.gov is the U.S. government's official web portal to all federal, state and local government web resources and services.